BERGEN/FLESLAND_AFB current weather conditions

sailwx.info

Wind from 130 at 11 knots

Air temperature 1.0° C
Visibility: greater than 5.4 NM
Dewpoint -7.0° C

Last reported at 2018-Jan-22 01:50 UTC.
Time now 2018-Jan-22 02:36 UTC

Location: N 60°18' E 005°13'.
View on Google Maps.

See reports from other nearby stations

  
Tides and Currents Weather Stations Pressure Air Temp Water Temp Dewpoint Dewpoint Depression Visibility Wind Speed Wind Dir Waves Ship Positions
date/time (UTC)wind fromknots sea level pressurealtimeterstation pressurevisibilityair tempwater tempwave heightnotes
2018-Jan-22 01:50 130 11 5.4 1.0
2018-Jan-22 00:50 130 9 5.4 1.0
2018-Jan-21 23:50 130 11 5.4 1.0
2018-Jan-21 22:50 130 8 5.4 1.0
2018-Jan-21 22:20 130 6 5.4 1.0
2018-Jan-21 21:50 140 6 5.4 1.0
2018-Jan-21 21:20 120 8 5.4 1.0
2018-Jan-21 20:50 130 7 5.4 1.0
2018-Jan-21 20:20 120 7 5.4 1.0
2018-Jan-21 19:50 120 8 5.4 1.0
2018-Jan-21 19:20 130 8 5.4-0.0
2018-Jan-21 18:50 130 7 5.4-0.0
2018-Jan-21 18:20 120 7 5.4-0.0
2018-Jan-21 17:50 130 6 5.4-0.0
2018-Jan-21 17:20 120 8 5.4-0.0
2018-Jan-21 16:50 120 6 5.4-0.0
2018-Jan-21 16:20 110 6 5.4-0.0
2018-Jan-21 15:50 120 7 5.4-0.0
2018-Jan-21 15:20 130 6 5.4 1.0
2018-Jan-21 14:50 130 7 5.4 1.0
2018-Jan-21 14:20 130 6 5.4 1.0
2018-Jan-21 13:50 130 6 5.4 2.0
2018-Jan-21 13:20 150 7 5.4 2.0
2018-Jan-21 12:50 130 7 5.4 2.0
2018-Jan-21 12:20 140 7 5.4 2.0
2018-Jan-21 11:50 130 6 5.4 2.0
2018-Jan-21 11:20 130 6 5.4 2.0
2018-Jan-21 10:50 130 6 5.4 1.0
2018-Jan-21 10:20 130 6 5.4 1.0
2018-Jan-21 09:50 130 5 5.4-0.0
2018-Jan-21 09:20 5.4-2.0
2018-Jan-21 08:50 5.4-2.0
2018-Jan-21 08:20 170 1 5.4-2.0
2018-Jan-21 07:50 160 2 5.4-2.0
2018-Jan-21 07:20 5.4-2.0
2018-Jan-21 06:50 130 4 5.4-2.0
2018-Jan-21 06:20 130 5 5.4-2.0
2018-Jan-21 05:50 130 4 5.4-2.0
2018-Jan-21 04:50 5.4-1.0
2018-Jan-21 03:50 110 2 5.4-1.0
2018-Jan-21 02:50 150 2 5.4-1.0
2018-Jan-21 01:50 5.4-0.0
2018-Jan-21 00:50 120 2 5.4-1.0
2018-Jan-20 23:50 090 4 5.4-0.0
2018-Jan-20 22:50 5.4-0.0
2018-Jan-20 22:20 5.4-0.0
2018-Jan-20 21:50 090 2 5.4-0.0
2018-Jan-20 21:20 5.4-1.0
2018-Jan-20 20:50 5.4-1.0
2018-Jan-20 20:20 5.4-0.0
2018-Jan-20 19:50 5.4-0.0
2018-Jan-20 19:20 110 2 5.4-0.0
2018-Jan-20 18:50 5.4-0.0
2018-Jan-20 18:20 090 5 5.4 1.0
2018-Jan-20 17:50 5.4 1.0
2018-Jan-20 17:20 080 6 5.4 1.0
2018-Jan-20 16:50 090 6 5.4 1.0
2018-Jan-20 16:20 090 6 5.4 1.0
2018-Jan-20 15:50 090 5 5.4-0.0
2018-Jan-20 15:20 110 5 5.4 1.0
2018-Jan-20 14:50 110 4 5.4 2.0
2018-Jan-20 14:20 110 5 5.4 2.0
2018-Jan-20 13:50 130 5 5.4 2.0
2018-Jan-20 13:20 130 5 5.4 2.0
2018-Jan-20 12:50 130 5 5.4 3.0
2018-Jan-20 12:20 150 5 5.4 1.0 Showers in the vicinity.
2018-Jan-20 11:50 120 5 5.4 2.0 Showers in the vicinity.
2018-Jan-20 11:20 110 5 5.4 2.0
2018-Jan-20 10:50 110 6 5.4 2.0
2018-Jan-20 10:20 100 5 5.4 1.0
2018-Jan-20 09:50 100 6 5.4 1.0
2018-Jan-20 09:20 110 6 5.4 1.0
2018-Jan-20 08:50 120 5 5.4 1.0
2018-Jan-20 08:20 100 5 5.4-0.0
2018-Jan-20 07:50 100 5 5.4 1.0
2018-Jan-20 07:20 090 6 5.4 1.0
2018-Jan-20 06:50 110 4 5.4 1.0
2018-Jan-20 06:20 110 5 5.4-0.0
2018-Jan-20 05:50 120 6 5.4 1.0
2018-Jan-20 05:20 120 6 5.4 1.0
2018-Jan-20 04:50 130 6 5.4 1.0
2018-Jan-20 04:20 130 7 5.4 2.0
2018-Jan-20 03:50 130 6 5.4 1.0
2018-Jan-20 02:50 120 6 5.4 1.0